Regional Weather Roundup
Issued by NWS

Home | Current Version | Previous Version | Graphics & Text | Print | Product List | Glossary On
Versions: 1 2 3 4 5 6 7 8 9 10 11 12 13 14 15 16 17 18 19 20 21 22 23 24 25 26 27 28 29 30 31 32 33 34 35 36 37 38 39 40 41 42 43 44 45 46 47 48 49 50
053
ASUS43 KMPX 282110
RWRMN
WEATHER ROUNDUP FOR MINNESOTA
NATIONAL WEATHER SERVICE TWIN CITIES/CHANHASSEN MN
400 PM CDT TUE MAR 28 2017


NOTE: "FAIR" INDICATES FEW OR NO CLOUDS BELOW 12,000 FEET WITH NO
SIGNIFICANT WEATHER AND/OR OBSTRUCTIONS TO VISIBILITY. N/A MEANS
CURRENT SKY AND/OR WEATHER CONDITIONS ARE NOT AVAILABLE.

MNZ060>063-068>070-282200-
   Twin Cities Metro

CITY           SKY/WX    TMP DP  RH WIND       PRES   REMARKS
TWIN CITIES    PTSUNNY   64  28  25 SE5       30.12F
ST PAUL        SUNNY     64  31  28 N5        30.12F
CRYSTAL        SUNNY     62  27  26 VRB3      30.12F
BLAINE         MOSUNNY   64  27  24 NE5       30.13F
LAKEVILLE      SUNNY     61  30  31 E6        30.12F
EDEN PRAIRIE   SUNNY     63  30  28 VRB5      30.11F
SOUTH ST PAUL  SUNNY     62  31  31 CALM      30.12F
LAKE ELMO      FAIR      63  32  31 N5        30.13F
$$
MNZ001>005-007-008-013>017-022>024-027-028-282200-
   Northwest Minnesota

CITY           SKY/WX    TMP DP  RH WIND       PRES   REMARKS
BEMIDJI        MOSUNNY   58  29  34 SE6       30.15F
HALLOCK        MOSUNNY   48  39  71 NW7       30.21S
ROSEAU         MOSUNNY   52  36  54 E8        30.21S
WARROAD        SUNNY     45  32  61 E9        30.22S
THIEF RVR FALL CLOUDY    53  35  50 NE6       30.19F
CROOKSTON      MOSUNNY   55  37  50 N3        30.19S
FOSSTON        MOSUNNY   57  37  47 N7        30.17S
DETROIT LAKES  CLOUDY    59  36  41 NW5       30.16F
MOORHEAD       MOSUNNY   55  41  58 N5        30.17F
PARK RAPIDS    MOSUNNY   60  28  29 CALM      30.13F
MAHNOMEN       FAIR      58  37  46 N6        30.15S
$$
MNZ006-009>011-018-025>026-282200-
   North Central Minnesota

CITY           SKY/WX    TMP DP  RH WIND       PRES   REMARKS
BAUDETTE       SUNNY     52  30  43 NW12      30.19S
FLAG ISLAND    SUNNY     45  25  45 NE5       30.22R
INTL FALLS     SUNNY     53  29  39 N7        30.19R
WASKISH        MOSUNNY   54  34  47 W7        30.18R
BIG FORK       MOSUNNY   57  28  33 N3        30.16R
LONGVILLE      CLOUDY    61  27  27 NW5       30.15S
GRAND RAPIDS   SUNNY     57  28  33 E3        30.17S
CRANE LAKE     SUNNY     52  27  37 N6        30.19S
ORR            SUNNY     55  23  28 CALM      30.14S
COOK           SUNNY     55  28  35 S5        30.16S
WALKER         FAIR      54  29  39 E6        30.15S
$$
MNZ012-019>021-037-282200-
   Northeast Minnesota

CITY           SKY/WX    TMP DP  RH WIND       PRES   REMARKS
DULUTH         MOSUNNY   58  29  33 CALM      30.14S
ELY            SUNNY     55  25  30 N5        30.15S
HIBBING        SUNNY     57  29  34 NW5       30.14S
EVELETH        MOSUNNY   58  23  26 N7        30.15S
DULUTH HARBOR  MOSUNNY   41  36  81 CALM      30.16S
TWO HARBORS    PTSUNNY   61  37  41 S8        30.13S
SILVER BAY     MOSUNNY   57  28  33 SE8       30.12S
GRAND MARAIS     N/A     39  33  79 NE6       30.21R
G MARAIS ARPRT PTSUNNY   46  25  42 SE5       30.17S
$$
MNZ029>031-032-039>041-046>048-054>057-064-282200-
   West Central Minnesota

CITY           SKY/WX    TMP DP  RH WIND       PRES   REMARKS
FERGUS FALLS   SUNNY     59  39  47 W5        30.16F
WHEATON        MOSUNNY   61  36  39 CALM      30.14F
MORRIS         SUNNY     63  37  39 N6        30.11F
ALEXANDRIA     SUNNY     61  30  31 N8        30.13F
ELBOW LAKE     FAIR      58  39  49 CALM      30.14F
WADENA         MOSUNNY   61  34  36 CALM      30.13S
GLENWOOD       SUNNY     63  34  34 N6        30.13F
APPLETON       MOSUNNY   61  34  36 E8        30.12F
BENSON         MOSUNNY   64  27  24 SE7       30.14F
ORTONVILLE     MOSUNNY   61  37  41 E5        30.12F
MADISON        CLOUDY    63  37  39 NE7       30.11F
WILLMAR        FAIR      63  30  29 NE7       30.14F
$$
MNZ033>034-036-042>043-049>051-058-059-282200-
   Central Minnesota

CITY           SKY/WX    TMP DP  RH WIND       PRES   REMARKS
ST CLOUD       SUNNY     63  28  26 N3        30.13F
SAUK CENTRE    FAIR      60  33  35 CALM      30.13F
PAYNESVILLE    SUNNY     60  31  32 E6        30.14S
AITKIN         SUNNY     63  23  22 CALM      30.13S
PINE RIVER     MOSUNNY   61  34  36 N6        30.16F
BRAINERD       SUNNY     62  27  26 VRB3      30.14F
STAPLES        MOSUNNY   61  27  27 CALM      30.13S
LONG PRAIRIE   FAIR      61  34  36 CALM      30.14S
LITTLE FALLS   MOSUNNY   61  30  31 CALM      30.13F
LITCHFIELD     MOSUNNY   63  28  27 NE6       30.14F
BUFFALO        SUNNY     61  24  24 N3        30.14F
MAPLE LAKE     SUNNY     62  31  31 CALM      30.14F
HUTCHINSON     SUNNY     61  32  33 NE3       30.14F
$$
MNZ037-044-045-052-053-282200-
   East Central Minnesota

CITY           SKY/WX    TMP DP  RH WIND       PRES   REMARKS
PRINCETON      MOSUNNY   64  27  24 CALM      30.14F
MORA           MOSUNNY   59  28  31 CALM      30.15F
CAMBRIDGE      MOSUNNY   64  39  39 E6        30.12F
RUSH CITY      MOSUNNY   61  26  27 CALM      30.14F
MOOSE LAKE     PTSUNNY   61  30  31 SE5       30.12S
CLOQUET        PTSUNNY   61  25  25 NW5       30.14S
MCGREGOR       SUNNY     61  32  33 N6        30.14S
$$
MNZ071>073-080-081-089-090-097-098-282200-
   Southwest Minnesota

CITY           SKY/WX    TMP DP  RH WIND       PRES   REMARKS
MONTEVIDEO     PTSUNNY   63  36  36 SE8       30.12F
GRANITE FALLS  CLOUDY    65  35  33 E6        30.11F
CANBY          PTSUNNY   60  38  44 CALM      30.12F
MARSHALL       MOSUNNY   59  36  42 E8        30.10F
REDWOOD FALLS  MOSUNNY   62  33  33 E12       30.10F
OLIVIA         CLOUDY    61  34  36 E9        30.11F
PIPESTONE      MOSUNNY   61  30  31 E9        30.09S
WINDOM         SUNNY     61  34  36 E14       30.10F
WORTHINGTON    MOSUNNY   58  37  45 E16       30.10F
JACKSON          N/A     59  36  41 E16       30.10F
TRACY          MOSUNNY   61  39  43 E9        30.10F
SLAYTON        MOSUNNY   57  39  50 E9        30.11S
$$
MNZ065>067-074>077-082>085-091>093-282200-
   South Central Minnesota

CITY           SKY/WX    TMP DP  RH WIND       PRES   REMARKS
MANKATO        SUNNY     61  35  37 NE10      30.11F
NEW ULM        SUNNY     63  32  31 SE12G17   30.11F
ST JAMES       SUNNY     61  37  41 CALM      30.11F
FAIRMONT       SUNNY     58  38  47 E13       30.10F
GLENCOE        CLOUDY    62  34  35 N5        30.12F
FARIBAULT      MOSUNNY   63  39  42 E8        30.13F
OWATONNA       SUNNY     59  34  38 NE7       30.13S
WASECA         SUNNY     59  36  41 E10       30.13F
ALBERT LEA     SUNNY     57  37  47 E12       30.12S
$$
MNZ078>079-086>088-094>096-282200-
   Southeast Minnesota

CITY           SKY/WX    TMP DP  RH WIND       PRES   REMARKS
ROCHESTER      SUNNY     57  39  51 E8        30.13F
RED WING       SUNNY     61  34  36 S5        30.12F
STANTON        SUNNY     61  37  39 E3        30.11F
DODGE CENTER   SUNNY     57  37  47 NE3       30.13S
WINONA         SUNNY     57  37  47 CALM      30.14F
AUSTIN         SUNNY     55  39  54 E8        30.12S
PRESTON        SUNNY     56  36  46 NE5       30.13F
$$
ABBREVIATIONS USED IN REMARKS
   TC - TEMPERATURES IN CELSIUS
  WCI - WIND CHILL INDEX
   HX - HEAT INDEX
  VSB - VISIBILITY
$$




USA.gov is the U.S. government's official web portal to all federal, state and local government web resources and services.